Moose, WY

12:28 PM MDT on September 27, 2016 (GMT -0600)
Jackson Hole

Weather History for KJAC - September, 2013

Change the Weather History Date:

Tuesday, September 17, 2013

  Actual Average Record
Temperature  
Mean Temperature 54 °F -  
Max Temperature 64 °F 68 °F 82 °F (1979)
Min Temperature 44 °F 30 °F 18 °F (1971)
Degree Days  
Heating Degree Days 11    
Growing Degree Days 4 (Base 50)    
Moisture  
Dew Point 48 °F    
Average Humidity 88    
Maximum Humidity 100    
Minimum Humidity 59    
Precipitation  
Precipitation 0.12 in - - ()
Sea Level Pressure  
Sea Level Pressure 29.98 in    
Wind  
Wind Speed 6 mph (NNE)    
Max Wind Speed 16 mph    
Max Gust Speed 23 mph    
Visibility 10 miles    
Events Rain , Thunderstorm    
Averages and records for this station are not official NWS values.
T = Trace of Precipitation, MM = Missing Value Source: NWS Daily Summary

Daily Weather History Graph

Daily Weather History Graph

Search for Another Location

Airport or City:

Trip Planner

Search our weather history database for the weather conditions in past years. The results will help you decide how hot, cold, wet, or windy it might be!

Date:

Astronomy

Sep. 17, 2013 Rise Set
Actual Time 7:04 AM MDT 7:28 PM MDT
Civil Twilight 6:36 AM MDT 7:57 PM MDT
Nautical Twilight 6:02 AM MDT 8:31 PM MDT
Astronomical Twilight 5:27 AM MDT 9:06 PM MDT
Moon 6:19 PM MDT (9/17) 5:00 AM MDT (9/17)
Length of Visible Light 13h 21m
Length of Day
12h 24m
Waxing Gibbous, 96% of the Moon is Illuminated
Sep 17
Waxing Gibbous
Sep 19
Full
Sep 26
Last Quarter
Oct 4
New
Oct 11
First Quarter

Hourly Weather History & Observations

Time (MDT) Temp. Windchill Dew Point Humidity Pressure Visibility Wind Dir Wind Speed Gust Speed Precip Events Conditions
12:16 AM 48.2 °F - 46.4 °F 93% 30.09 in 10.0 mi North 5.8 mph - N/A   Clear
12:35 AM 46.4 °F 42.4 °F 46.4 °F 100% 30.08 in 10.0 mi North 8.1 mph - N/A   Clear
12:55 AM 46.4 °F 43.5 °F 44.6 °F 93% 30.09 in 10.0 mi North 5.8 mph - N/A   Clear
1:15 AM 46.4 °F 43.5 °F 44.6 °F 93% 30.09 in 10.0 mi North 5.8 mph - N/A   Clear
1:35 AM 46.4 °F 45.2 °F 44.6 °F 93% 30.09 in 10.0 mi NNE 3.5 mph - N/A   Clear
2:15 AM 44.6 °F 42.2 °F 44.6 °F 100% 30.08 in 10.0 mi North 4.6 mph - N/A   Partly Cloudy
2:35 AM 44.6 °F 40.7 °F 44.6 °F 100% 30.08 in 10.0 mi NW 6.9 mph - N/A Thunderstorm Scattered Clouds
2:55 AM 48.2 °F - 46.4 °F 93% 30.07 in 10.0 mi NE 11.5 mph - N/A Thunderstorm Thunderstorm
3:15 AM 51.8 °F - 48.2 °F 88% 30.09 in 10.0 mi NNE 4.6 mph - N/A   Overcast
3:35 AM 50.0 °F - 46.4 °F 87% 30.08 in 10.0 mi ENE 11.5 mph - N/A   Mostly Cloudy
3:55 AM 51.8 °F - 46.4 °F 82% 30.07 in 10.0 mi East 9.2 mph - N/A   Mostly Cloudy
4:15 AM 48.2 °F - 46.4 °F 93% 30.07 in 10.0 mi West 5.8 mph - N/A   Partly Cloudy
4:35 AM 46.4 °F 42.9 °F 44.6 °F 93% 30.06 in 10.0 mi North 6.9 mph - N/A   Partly Cloudy
4:55 AM 46.4 °F 42.9 °F 46.4 °F 100% 30.06 in 10.0 mi North 6.9 mph - N/A   Clear
5:35 AM 48.2 °F - 44.6 °F 87% 30.06 in 10.0 mi East 4.6 mph - N/A   Scattered Clouds
5:55 AM 46.4 °F 42.9 °F 44.6 °F 93% 30.06 in 10.0 mi NNW 6.9 mph - N/A   Partly Cloudy
6:15 AM 48.2 °F - 46.4 °F 93% 30.06 in 10.0 mi North 8.1 mph - N/A   Partly Cloudy
6:51 AM 46.4 °F 42.9 °F 44.6 °F 93% 30.06 in 10.0 mi North 6.9 mph - N/A   Clear
7:51 AM 48.2 °F - 44.6 °F 87% 30.07 in 10.0 mi Calm Calm - N/A   Clear
8:52 AM 53.6 °F - 46.4 °F 77% 30.04 in 10.0 mi WSW 3.5 mph - N/A   Clear
9:53 AM 57.2 °F - 48.2 °F 72% 30.03 in 10.0 mi WSW 3.5 mph - N/A   Clear
10:52 AM 60.8 °F - 46.4 °F 59% 30.01 in 10.0 mi Calm Calm - N/A Thunderstorm Mostly Cloudy
11:01 AM 60.8 °F - 46.4 °F 59% 30.00 in 10.0 mi Calm Calm - N/A Thunderstorm Thunderstorm
11:51 AM 55.4 °F - 51.8 °F 88% 30.00 in 10.0 mi South 5.8 mph - N/A Rain , Thunderstorm Light Thunderstorms and Rain
12:56 PM 59.0 °F - 51.8 °F 77% 29.95 in 10.0 mi SE 4.6 mph - N/A   Mostly Cloudy
1:59 PM 62.6 °F - 51.8 °F 68% 29.90 in 10.0 mi Calm Calm - N/A   Scattered Clouds
2:51 PM 64.4 °F - 51.8 °F 64% 29.88 in 10.0 mi Calm Calm - N/A Thunderstorm Scattered Clouds
3:18 PM 62.6 °F - 51.8 °F 68% 29.89 in 10.0 mi SSW 6.9 mph - N/A Thunderstorm Thunderstorm
3:59 PM 55.4 °F - 51.8 °F 88% 29.89 in 10.0 mi SW 6.9 mph - N/A Thunderstorm Mostly Cloudy
4:41 PM 55.4 °F - 51.8 °F 88% 29.90 in 10.0 mi SSW 12.7 mph - N/A Rain , Thunderstorm Light Thunderstorms and Rain
4:56 PM 55.4 °F - 50.0 °F 82% 29.88 in 10.0 mi SW 10.4 mph - N/A Rain , Thunderstorm Light Thunderstorms and Rain
5:35 PM 57.2 °F - 51.8 °F 82% 29.85 in 10.0 mi South 4.6 mph - N/A   Mostly Cloudy
5:51 PM 55.4 °F - 51.8 °F 88% 29.82 in 10.0 mi WSW 6.9 mph - N/A   Scattered Clouds
6:53 PM 55.4 °F - 51.8 °F 88% 29.81 in 10.0 mi East 5.8 mph - N/A Thunderstorm Mostly Cloudy
7:05 PM 55.4 °F - 50.0 °F 82% 29.81 in 8.0 mi Calm Calm - N/A Thunderstorm Thunderstorm
7:52 PM 51.8 °F - 46.4 °F 82% 29.82 in 7.0 mi SE 16.1 mph 23.0 mph N/A Rain , Thunderstorm Light Thunderstorms and Rain
8:14 PM 48.2 °F - 46.4 °F 93% 29.93 in 8.0 mi East 12.7 mph - N/A Rain Light Rain
8:55 PM 48.2 °F - 46.4 °F 93% 29.92 in 10.0 mi ENE 8.1 mph - 0.11 in   Mostly Cloudy
9:16 PM 48.2 °F - 46.4 °F 93% 29.93 in 10.0 mi West 3.5 mph - 0.01 in   Overcast
9:35 PM 48.2 °F - 48.2 °F 100% 29.90 in 10.0 mi North 8.1 mph - 0.01 in   Overcast
9:55 PM 48.2 °F - 48.2 °F 100% 29.91 in 10.0 mi Calm Calm - 0.01 in   Mostly Cloudy
10:16 PM 48.2 °F - 48.2 °F 100% 29.90 in 10.0 mi Calm Calm - N/A   Scattered Clouds
10:35 PM 48.2 °F - 46.4 °F 93% 29.91 in 10.0 mi Calm Calm - N/A   Mostly Cloudy
10:55 PM 48.2 °F - 48.2 °F 100% 29.90 in 10.0 mi East 4.6 mph - N/A   Mostly Cloudy
11:15 PM 48.2 °F - 48.2 °F 100% 29.90 in 10.0 mi Calm Calm - N/A   Mostly Cloudy
11:35 PM 48.2 °F - 46.4 °F 93% 29.89 in 10.0 mi Calm Calm - N/A   Overcast